SCP
1 1 1 1 1 1 1 1 1 1 1 1 1 1 1 1 1 1 1 1 1 1 1 2 2 2 2 2 2 2 2 1 1 1 1 1 1 1 1 1 1 1 1
1 1 1 1 1 1 1 1 1 1 1 1 1 1 1 1 1 1 1 1 1 1 2 2 2 2 2 2 2 2 1 1 1 1 1 1 1 1 1 1 1 2 2
1 1 1 2 2 1 1 1 1 1 1 1 1 1 1 1 1 1 1 1 1 2 2 2 2 2 2 2 2 1 1 1 1 1 1 1 1 1 1 1 1 2 2
0 1 1 2 2 2 1 1 1 1 1 1 1 1 1 1 1 1 1 1 1 1 2 2 2 2 2 1 1 1 1 1 1 1 1 1 1 1 1 1 2 2 2
1 1 1 2 2 2 1 1 1 1 1 1 1 1 1 1 1 1 1 1 1 1 2 2 2 2 2 1 1 1 1 1 1 1 1 1 1 1 1 2 2 2 1
1 1 1 2 3 3 2 1 1 1 1 1 1 1 1 1 1 1 1 1 2 2 2 2 2 2 2 2 1 1 1 1 1 1 1 1 1 1 1 1 2 1 1
1 1 1 2 3 3 2 2 1 1 1 1 1 1 1 1 1 1 1 2 2 3 2 2 2 2 2 2 1 1 1 1 1 1 1 1 1 1 1 1 1 1 1
1 1 1 2 3 3 3 2 2 2 2 2 1 1 1 1 1 1 1 2 2 2 2 2 2 2 2 2 1 1 1 1 1 1 1 1 1 1 1 1 1 1 1
1 1 1 2 3 3 3 3 2 2 2 2 2 2 1 1 1 1 1 1 2 2 2 2 2 2 2 2 1 1 1 1 1 0 1 1 1 1 1 1 1 1 1
1 1 1 1 2 2 2 2 2 2 2 2 2 2 2 2 2 1 1 1 2 2 2 2 2 2 1 1 1 1 1 1 0 0 1 1 1 1 1 1 1 1 1
1 1 1 1 1 1 1 2 2 2 2 2 2 2 2 2 2 1 1 1 1 2 2 2 2 2 1 1 1 1 1 1 0 1 1 1 1 1 1 1 1 1 1
1 1 1 1 1 1 1 1 1 1 1 1 1 2 2 1 1 1 1 1 1 2 2 2 2 1 1 1 1 1 1 1 1 1 1 1 1 1 2 1 1 1 1
1 1 1 1 1 1 1 1 1 1 1 1 1 1 1 1 1 2 2 2 1 1 2 1 1 1 1 1 1 1 1 1 1 1 1 1 1 1 2 2 1 1 1
1 1 1 2 2 2 2 1 2 2 1 1 1 1 1 1 1 1 2 2 1 1 1 1 1 1 1 1 1 1 1 1 1 1 1 1 1 1 2 2 1 1 1
1 1 1 2 2 3 2 2 2 2 2 2 1 1 1 1 1 1 1 2 1 1 1 1 1 1 1 1 1 1 1 1 1 1 1 1 1 1 2 2 2 1 1
1 1 1 2 3 4 3 3 2 2 2 2 2 1 1 1 1 1 1 1 1 1 1 1 1 1 1 1 1 1 1 1 1 1 1 1 1 1 2 2 2 2 2
1 1 1 2 4 5 5 3 2 2 3 3 2 2 1 1 1 1 1 1 1 1 2 1 1 1 1 1 1 1 1 1 1 1 1 2 1 1 2 2 2 2 2
2 1 1 2 3 6 6 5 3 3 4 3 3 2 2 1 1 1 1 2 1 1 1 1 1 1 1 1 1 1 1 1 2 1 2 2 2 1 2 2 2 2 2
2 2 2 3 4 6 7 6 4 5 5 4 3 3 2 2 1 1 1 2 1 1 1 1 1 1 1 1 1 1 1 1 1 1 2 2 2 2 2 2 2 2 2
2 3 4 6 7 8 9 8 6 6 6 5 4 4 3 2 1 1 2 2 1 1 1 1 1 1 1 1 1 1 1 1 1 1 1 1 2 2 2 2 2 2 2
2 3 5 7 9 10 10 10 8 7 6 5 4 4 3 2 2 2 2 2 2 1 1 1 1 1 1 1 1 1 1 1 1 1 1 1 1 2 2 2 2 2 2
2 3 5 8 10 11 11 10 9 8 7 5 4 4 4 3 3 3 3 2 2 2 2 2 2 1 1 1 1 1 1 1 1 1 1 1 2 2 3 3 3 3 3
2 3 4 7 9 11 11 10 9 9 8 7 5 4 4 4 4 4 3 3 3 2 2 2 2 2 1 1 1 1 1 1 1 1 1 1 1 2 3 3 3 4 4
2 3 4 6 8 9 9 9 8 9 9 8 6 4 4 4 5 5 5 5 4 3 3 3 3 3 2 1 1 1 1 1 1 1 1 1 1 2 2 3 3 4 4
4 5 6 7 8 8 8 8 8 8 8 7 6 5 5 5 6 6 7 6 6 5 4 4 4 4 3 2 2 2 1 2 2 2 1 1 1 2 2 3 3 4 4
8 8 9 9 7 7 7 7 7 7 6 6 6 5 5 6 6 7 8 8 7 6 5 5 6 5 4 3 3 2 2 2 2 2 2 1 2 2 2 3 3 4 4
Wind_Speed
9 10 11 12 11 10 9 9 9 8 8 7 7 7 8 8 8 8 9 10 10 10 12 12 12 12 11 12 12 13 13 13 13 13 14 12 11 11 10 10 10 8 9
10 10 12 12 11 11 10 9 8 8 9 8 8 8 8 8 8 9 9 9 9 10 11 11 12 11 11 11 11 12 12 12 13 13 13 11 11 10 9 8 7 6 9
11 10 11 12 11 10 10 9 9 9 9 9 10 10 10 9 9 9 10 9 9 10 12 12 12 12 11 10 11 11 11 12 12 12 12 8 8 10 10 9 8 9 8
11 10 10 11 10 10 10 9 9 9 9 10 10 10 10 10 10 10 10 9 10 12 13 13 13 12 11 10 10 10 10 10 10 10 6 6 7 10 10 9 8 8 8
12 11 11 11 11 10 10 10 10 10 9 10 10 10 10 10 10 10 10 9 10 12 13 13 12 12 11 10 10 10 9 8 8 7 6 6 5 9 10 9 8 8 7
12 12 11 11 11 10 10 10 10 10 10 10 10 10 10 10 11 11 11 10 12 13 13 13 12 12 11 10 10 9 8 7 6 5 6 6 6 9 9 9 8 8 7
12 11 11 11 11 10 10 10 9 9 10 9 9 9 10 11 11 11 11 12 14 14 13 12 12 11 10 9 9 8 7 5 3 5 7 6 6 9 9 9 8 8 7
12 12 10 11 11 10 9 9 9 9 9 9 9 10 10 11 11 10 11 12 13 13 13 12 12 10 9 8 7 7 5 4 4 6 7 7 8 9 8 8 7 7 7
11 11 10 10 9 9 9 9 9 8 8 8 9 10 10 10 11 11 12 13 13 13 12 12 11 10 8 6 5 4 4 3 2 5 8 6 9 9 8 7 7 7 7
8 9 9 9 9 8 7 9 8 8 8 8 8 9 10 10 11 11 12 13 13 12 12 11 10 9 8 6 5 4 4 3 2 6 6 7 10 9 8 7 8 7 7
7 6 7 8 8 7 7 8 7 7 7 7 6 8 6 5 7 8 12 12 12 11 11 10 9 8 7 6 6 5 4 2 4 5 6 9 10 9 8 7 7 7 7
6 6 6 7 6 5 6 5 4 5 5 4 4 5 3 4 5 7 11 12 11 10 10 9 8 7 6 4 5 6 3 3 4 6 7 12 10 9 8 7 7 7 7
6 6 7 7 5 5 5 3 3 3 4 4 5 5 4 4 4 4 4 6 6 7 5 6 6 4 3 3 3 3 2 2 3 5 7 12 10 8 7 7 6 6 6
6 6 6 7 6 5 4 3 3 3 3 3 4 4 3 2 3 3 2 3 3 2 3 3 2 2 2 3 2 2 2 2 3 4 6 11 10 9 8 7 7 6 6
7 6 7 7 6 4 3 2 3 4 4 5 3 3 3 3 3 3 2 2 2 2 2 2 2 1 1 1 1 2 2 3 5 5 5 10 10 9 8 7 7 6 7
7 6 6 7 6 4 3 2 2 3 3 4 4 4 3 3 3 2 2 2 2 2 2 2 2 1 1 1 1 1 2 3 3 5 5 7 9 9 8 8 7 7 7
7 6 5 6 5 4 4 2 2 2 4 4 4 4 4 4 3 2 2 2 2 2 2 2 1 1 2 2 1 1 1 2 2 3 5 4 5 8 9 8 8 7 7
7 5 4 5 6 4 3 2 2 3 4 3 3 4 3 3 2 1 1 2 1 1 1 1 1 1 1 1 1 1 1 2 3 3 3 4 5 5 8 10 9 8 9
7 5 5 5 5 4 3 2 2 3 3 2 3 3 3 2 2 1 2 1 0 1 1 1 2 1 0 0 1 1 1 2 2 3 3 4 5 5 5 8 10 10 10
8 6 5 5 4 4 2 2 1 2 2 2 2 3 2 2 2 1 1 1 1 1 1 2 1 0 0 1 1 1 1 2 3 2 2 2 3 4 5 6 6 7 10
9 7 6 5 4 3 2 2 1 1 2 1 2 3 3 2 2 2 2 1 1 1 1 0 0 1 0 0 1 1 0 1 2 2 2 1 2 3 3 5 4 3 4
9 7 6 5 4 3 2 1 1 1 1 1 2 2 2 1 1 1 1 1 1 1 0 0 1 1 1 1 1 0 0 1 1 1 2 2 2 2 2 4 4 3 3
9 8 7 6 5 4 3 2 1 1 1 1 2 2 1 1 1 1 1 1 1 0 0 0 0 1 1 0 0 1 1 0 1 0 1 1 1 1 1 2 3 3 3
9 8 7 6 5 4 3 2 2 1 1 1 1 2 2 1 1 1 1 1 1 1 1 1 1 1 0 1 0 1 1 1 1 0 0 1 1 1 0 0 1 2 2
9 8 8 7 5 4 3 2 2 1 1 1 2 2 1 1 1 1 1 1 1 1 1 1 1 1 1 1 0 0 1 1 1 2 1 1 1 1 1 1 1 1 2
8 8 8 7 5 4 3 2 2 1 1 1 1 1 1 1 1 1 1 1 1 1 0 0 1 1 1 2 2 1 1 0 1 1 1 1 1 0 1 1 2 1 1
Wind_Direction
72 74 75 72 67 63 62 62 64 64 63 66 77 81 84 93 99 98 102 109 120 127 131 132 132 132 130 131 131 133 132 133 133 132 127 123 122 120 122 124 125 121 124
87 82 75 71 63 60 59 61 64 64 61 64 76 82 85 89 99 102 102 106 116 127 129 129 128 127 128 128 130 133 136 138 136 135 132 127 124 120 120 124 122 124 133
88 87 81 71 63 60 59 62 63 64 64 67 74 81 86 89 93 105 105 105 112 127 129 125 124 122 127 130 131 135 138 139 141 143 141 132 127 123 123 126 133 137 137
92 87 80 77 65 63 63 63 65 69 67 70 76 81 85 90 92 99 108 108 112 123 127 122 122 121 123 129 134 137 140 143 148 155 145 129 131 130 132 136 140 140 143
90 90 87 82 73 70 69 67 68 71 70 74 79 82 86 88 93 102 106 110 117 124 125 124 126 125 126 129 132 136 142 149 152 155 126 120 120 133 135 138 142 142 144
97 96 95 90 83 77 73 71 70 70 73 78 84 85 87 88 92 99 102 102 112 119 120 120 121 126 125 128 131 139 148 154 161 146 124 117 117 132 136 141 141 143 145
96 100 104 98 90 86 81 77 74 75 76 80 85 87 91 92 95 98 99 100 108 114 114 114 117 116 117 119 128 140 150 158 161 122 111 110 118 133 140 143 143 143 143
107 109 111 106 97 93 89 84 81 80 80 83 89 90 90 92 94 101 104 106 113 113 116 114 112 111 112 119 128 141 153 152 124 110 106 110 129 136 140 141 140 140 142
108 113 121 122 113 105 98 94 94 90 87 92 99 98 97 94 95 102 107 107 111 113 113 114 117 119 120 121 128 146 164 170 114 117 118 118 134 138 140 140 139 140 143
106 112 120 123 124 124 116 106 105 103 100 101 105 108 108 107 105 111 114 111 114 116 119 122 127 133 138 142 146 165 189 187 152 119 112 124 137 140 138 139 140 143 145
92 101 104 111 118 122 120 119 122 117 112 111 112 117 114 101 100 111 114 119 124 126 127 131 139 146 153 163 173 188 202 193 146 114 113 129 137 138 139 141 144 148 150
94 97 99 94 101 106 104 117 128 121 117 115 99 103 103 92 96 107 116 126 133 135 138 149 158 166 176 177 189 197 211 181 130 116 123 135 137 140 144 146 147 154 158
106 97 96 93 84 84 88 102 94 93 106 109 106 107 105 102 109 111 122 131 139 148 152 155 171 185 173 170 182 191 193 145 115 117 133 143 145 148 148 151 156 165 173
95 89 86 85 77 62 64 70 93 91 94 91 86 80 89 93 96 101 108 124 140 143 147 157 160 165 157 165 175 174 145 116 111 117 141 151 154 158 162 168 173 179 184
97 88 81 77 76 71 58 39 76 84 82 88 85 75 80 86 85 89 91 104 113 117 121 110 115 115 114 139 118 116 107 113 118 123 138 157 161 166 171 178 183 187 192
107 93 90 92 92 91 82 57 67 85 93 89 88 80 82 93 88 91 98 87 97 97 94 102 109 111 96 77 59 66 89 101 118 132 141 157 165 171 179 184 186 192 199
112 103 96 103 100 97 98 86 90 95 96 90 92 87 77 84 82 89 99 99 100 115 116 117 134 143 142 139 122 105 99 115 127 133 143 154 169 180 184 187 191 201 208
115 111 114 107 102 99 94 82 63 73 86 91 101 96 83 82 84 80 87 89 97 116 127 122 86 72 87 109 147 171 144 150 166 160 156 164 170 176 188 193 198 205 214
116 114 106 97 108 116 117 108 83 78 75 80 92 94 89 88 77 71 87 72 87 78 62 83 85 57 60 111 186 181 171 175 173 182 171 178 173 166 171 189 197 205 214
121 121 117 112 110 115 118 112 78 77 83 78 80 88 87 71 74 27 95 57 50 59 41 55 74 156 231 247 209 140 186 174 172 173 182 172 161 166 171 173 187 207 213
128 129 130 125 120 126 120 125 124 122 125 120 110 94 90 59 47 40 46 57 61 79 65 49 292 236 205 100 79 14 329 210 161 160 172 168 164 165 166 170 182 186 188
138 139 134 132 133 140 118 113 123 120 117 108 90 99 100 83 42 95 55 40 49 87 38 276 239 265 219 147 148 107 26 353 345 178 161 175 169 172 170 170 171 169 170
144 146 149 147 147 157 149 145 119 113 88 93 117 118 107 103 78 39 57 49 334 64 301 240 298 225 266 210 143 161 163 158 276 345 135 146 136 153 180 172 166 170 175
149 150 144 142 150 153 158 163 161 152 140 138 125 118 116 121 115 103 84 78 24 41 346 303 19 300 265 265 225 184 183 161 163 265 357 113 159 166 196 157 153 160 166
151 151 146 143 145 147 167 168 168 146 123 130 121 112 127 148 161 113 86 66 70 75 29 351 17 352 1 337 304 267 230 203 206 188 213 246 219 183 175 182 188 179 173
144 145 144 141 143 149 162 151 148 144 141 119 108 133 188 154 156 138 136 99 73 101 111 18 360 34 23 357 344 342 322 270 217 191 206 230 230 247 192 180 189 178 162